Pisco, Peru

5:02 AM PET on August 24, 2016 (GMT -0500)
Pisco

Weather History for 84691 - July, 2013

Change the Weather History Date:

Monday, July 22, 2013

  Actual Average Record
Temperature  
Mean Temperature 65 °F -  
Max Temperature 73 °F 69 °F - ()
Min Temperature 57 °F 55 °F - ()
Growing Degree Days 15 (Base 50)    
Moisture  
Dew Point 57 °F    
Average Humidity 79    
Maximum Humidity 94    
Minimum Humidity 59    
Precipitation  
Precipitation 0.00 in 0.00 in - ()
Sea Level Pressure  
Sea Level Pressure 29.96 in    
Wind  
Wind Speed 7 mph ()    
Max Wind Speed 25 mph    
Max Gust Speed -    
Visibility 3.3 miles    
Events      
T = Trace of Precipitation, MM = Missing Value Source: Averaged Metar Reports

Daily Weather History Graph

Daily Weather History Graph

Search for Another Location

Airport or City:

Trip Planner

Search our weather history database for the weather conditions in past years. The results will help you decide how hot, cold, wet, or windy it might be!

Date:

Astronomy

Jul. 22, 2013 Rise Set
Actual Time 6:28 AM PET 5:54 PM PET
Civil Twilight 6:05 AM PET 6:17 PM PET
Nautical Twilight 5:39 AM PET 6:43 PM PET
Astronomical Twilight 5:13 AM PET 7:09 PM PET
Moon 6:04 PM PET (7/22) 6:05 AM PET (7/22)
Length of Visible Light 12h 11m
Length of Day
11h 26m
Full, 100% of the Moon is Illuminated
Jul 22
Full
Jul 22
Full
Jul 29
Last Quarter
Aug 6
New
Aug 14
First Quarter

Hourly Weather History & Observations

Time (PET) Temp. Dew Point Humidity Pressure Visibility Wind Dir Wind Speed Gust Speed Precip Events Conditions
12:00 AM 60.8 °F 57.2 °F 88% 29.98 in 3.7 mi ESE 3.5 mph - N/A   Scattered Clouds
1:00 AM 59.0 °F 57.2 °F 94% 29.98 in 3.7 mi East 3.5 mph - N/A   Scattered Clouds
2:00 AM 59.0 °F 55.4 °F 88% 29.95 in 3.7 mi SSE 3.5 mph - N/A   Scattered Clouds
3:00 AM 59.0 °F 55.4 °F 88% 29.95 in 3.7 mi Calm Calm - N/A   Mostly Cloudy
4:00 AM 60 °F 56 °F 82% 29.95 in 4 mi 2.3 mph - -   Mist
4:00 AM 59.0 °F 55.4 °F 88% 29.95 in 3.7 mi Variable 2.3 mph - N/A   Overcast
5:00 AM 59.0 °F 55.4 °F 88% 29.95 in 3.1 mi East 3.5 mph - N/A   Overcast
6:00 AM 59.0 °F 57.2 °F 94% 29.98 in 2.5 mi SSE 4.6 mph - N/A   Overcast
7:00 AM 60 °F 56 °F 81% 29.98 in 2 mi ESE 8.1 mph - -   Mist
7:00 AM 59.0 °F 55.4 °F 88% 29.98 in 1.9 mi ESE 8.1 mph - N/A   Mostly Cloudy
8:00 AM 60.8 °F 53.6 °F 77% 30.01 in 2.5 mi ESE 9.2 mph - N/A   Mostly Cloudy
9:00 AM 62.6 °F 55.4 °F 77% 30.04 in 2.5 mi SSE 4.6 mph - N/A   Mostly Cloudy
10:00 AM 64 °F 55 °F 65% 30.02 in 3 mi SE 9.2 mph - -   Mist
10:00 AM 64.4 °F 55.4 °F 73% 30.04 in 3.1 mi SSE 9.2 mph - N/A   Scattered Clouds
11:00 AM 66.2 °F 55.4 °F 68% 30.01 in 3.7 mi SE 8.1 mph - N/A   Partly Cloudy
12:00 PM 71.6 °F 59.0 °F 64% 29.98 in 4.3 mi WSW 13.8 mph - N/A   Unknown
1:00 PM 71 °F 60 °F 59% 29.95 in 3 mi WSW 17.3 mph - -   Light Sandstorm
1:00 PM 71.6 °F 59.0 °F 64% 29.95 in 3.1 mi WSW 17.3 mph - N/A   Unknown
1:15 PM 71.6 °F 60.8 °F 69% 29.95 in 2.2 mi WSW 21.9 mph - N/A   Unknown
2:00 PM 71.6 °F 59.0 °F 64% 29.92 in 1.6 mi WSW 20.7 mph - N/A   Unknown
3:00 PM 69.8 °F 59.0 °F 68% 29.92 in 0.9 mi WSW 25.3 mph - N/A   Unknown
4:00 PM 67 °F 59 °F 70% 29.90 in 2 mi WSW 19.6 mph - -   Light Sandstorm
4:00 PM 68.0 °F 59.0 °F 73% 29.92 in 1.9 mi WSW 19.6 mph - N/A   Unknown
5:00 PM 64.4 °F 59.0 °F 83% 29.92 in 2.5 mi WSW 19.6 mph - N/A   Unknown
6:00 PM 62.6 °F 57.2 °F 82% 29.92 in 2.5 mi WSW 17.3 mph - N/A   Mist
7:00 PM 62 °F 58 °F 82% 29.92 in 4 mi WSW 10.4 mph - -   Mist
7:00 PM 62.6 °F 57.2 °F 82% 29.92 in 4.3 mi WSW 10.4 mph - N/A   Unknown
8:00 PM 60.8 °F 57.2 °F 88% 29.95 in 5.0 mi WSW 4.6 mph - N/A   Unknown
9:00 PM 60.8 °F 57.2 °F 88% 29.95 in 5.0 mi South 5.8 mph - N/A   Unknown
10:00 PM 61 °F 55 °F 73% 29.96 in 5 mi ESE 4.6 mph - -   Mist
10:00 PM 60.8 °F 55.4 °F 82% 29.98 in 5.0 mi ESE 4.6 mph - N/A   Unknown
11:00 PM 59.0 °F 53.6 °F 82% 29.98 in 5.0 mi ENE 4.6 mph - N/A   Mostly Cloudy